This demonstration page uses our WeatherBlox Daily Observations layout. Learn more.

Left ArrowRight Arrow

39.51506, -84.39828

Hourly Observations for August 21, 2021

Temp ( °F °C ) Dew Point ( °F °C ) Humidity (%) Winds ( mph kmh ) Pressure ( in mb ) Visibility ( mi km ) Precip ( " mm )
12:15 am 00:15 Hazy 70 21 N/A N/A NNE 3 6 29.93 1014 5 8 N/A
12:35 am 00:35 Hazy 70 21 N/A N/A N N/A 29.93 1014 7 11 N/A
12:55 am 00:55 Clear with Mist and Fog 70 21 N/A N/A NE 3 6 29.94 1014 4 6 N/A
1:15 am 01:15 Hazy 68 20 N/A N/A N N/A 29.94 1014 5 8 N/A
1:35 am 01:35 Clear 68 20 N/A N/A NE 3 6 29.94 1014 7 11 N/A
1:55 am 01:55 Hazy 68 20 N/A N/A NNE 3 6 29.93 1014 7 11 N/A
2:15 am 02:15 Clear 68 20 N/A N/A N 3 6 29.93 1014 7 11 N/A
2:35 am 02:35 Hazy 68 20 N/A N/A N 3 6 29.92 1013 7 11 N/A
2:55 am 02:55 Hazy 66 19 N/A N/A ENE 3 6 29.93 1013 7 11 N/A
3:15 am 03:15 Hazy 68 20 N/A N/A ENE 3 6 29.93 1014 7 11 N/A
3:35 am 03:35 Hazy 66 19 N/A N/A N 3 6 29.93 1013 7 11 N/A
3:55 am 03:55 Hazy 66 19 N/A N/A NNE 3 6 29.93 1013 5 8 N/A
4:15 am 04:15 Hazy 66 19 N/A N/A NNE 3 6 29.93 1013 5 8 N/A
4:35 am 04:35 Hazy 66 19 N/A N/A NNE 3 6 29.93 1013 5 8 N/A
4:55 am 04:55 Hazy 66 19 N/A N/A N 3 6 29.93 1013 5 8 N/A
5:15 am 05:15 Clear with Mist and Fog 66 19 N/A N/A N N/A 29.92 1013 4 6 N/A
5:35 am 05:35 Hazy 64 18 N/A N/A N N/A 29.93 1014 4 6 N/A
5:55 am 05:55 Clear with Mist and Fog 64 18 N/A N/A N N/A 29.93 1014 3 4 N/A
6:15 am 06:15 Mostly Cloudy with Mist and Fog 64 18 N/A N/A N N/A 29.93 1014 1 1 N/A
6:35 am 06:35 Clear with Mist and Fog 64 18 N/A N/A ENE 3 6 29.93 1014 4 6 N/A
6:55 am 06:55 Clear with Mist and Fog 64 18 N/A N/A NNE 3 6 29.93 1014 2 3 N/A
7:15 am 07:15 Sunny with Mist and Fog 64 18 N/A N/A N N/A 29.94 1014 3 4 N/A
7:35 am 07:35 Sunny with Mist and Fog 66 19 N/A N/A ENE 3 6 29.94 1014 3 4 N/A
7:55 am 07:55 Sunny with Mist and Fog 68 20 N/A N/A N N/A 29.93 1014 3 4 N/A
8:15 am 08:15 Sunny with Mist and Fog 68 20 N/A N/A ENE 3 6 29.93 1014 4 6 N/A
8:35 am 08:35 Hazy 70 21 N/A N/A N N/A 29.94 1014 5 8 N/A
8:55 am 08:55 Sunny 71 21.8 71 21.6 99 99 N N/A 29.93 1014 7 11 N/A
9:15 am 09:15 Sunny 74 23.1 71 21.6 91 91 ENE 3 6 29.93 1013 10 16 N/A
9:35 am 09:35 Sunny 75 24.1 72 22 88 88 N N/A 29.93 1013 10 16 N/A
9:55 am 09:55 Sunny 77 24.8 72 22.1 85 85 N N/A 29.92 1013 10 16 N/A
10:15 am 10:15 Sunny 79 26 71 21.5 76 76 SSW 5 7 29.92 1013 10 16 N/A
10:35 am 10:35 Sunny 80 26.7 71 21.4 73 73 SW 3 6 29.92 1013 10 16 N/A
10:55 am 10:55 Sunny 82 27.5 68 20.1 64 64 S 3 6 29.92 1013 10 16 N/A
11:15 am 11:15 Sunny 82 27.8 69 20.4 64 64 S 3 6 29.92 1013 10 16 N/A
11:35 am 11:35 Partly Cloudy 83 28.1 69 20.4 63 63 W 3 6 29.92 1013 10 16 N/A
11:55 am 11:55 Partly Cloudy 82 27.9 69 20.5 64 64 S 5 7 29.92 1013 10 16 N/A
12:15 pm 12:15 Sunny 84 29.1 68 20.2 59 59 SSW 6 9 29.91 1013 10 16 N/A
12:35 pm 12:35 Partly Cloudy 85 29.3 67 19.6 56 56 SSW 7 11 29.90 1013 10 16 N/A
12:55 pm 12:55 Partly Cloudy 85 29.7 67 19.6 55 55 S 9 15 29.89 1012 10 16 N/A
1:15 pm 13:15 Sunny 87 30.4 67 19.2 51 51 S 5 7 29.89 1012 10 16 N/A
1:35 pm 13:35 Partly Cloudy 87 30.4 67 19.2 51 51 SW 6 9 29.88 1012 10 16 N/A
1:55 pm 13:55 Sunny 85 29.7 67 19.4 54 54 E 3 6 29.88 1012 10 16 N/A
2:15 pm 14:15 Partly Cloudy 87 30.6 67 19.7 52 52 E 7 11 29.87 1012 10 16 N/A
2:35 pm 14:35 Partly Cloudy 86 30 66 19 52 52 SSE 7 11 29.87 1012 10 16 N/A
2:55 pm 14:55 Sunny 86 30.2 66 19 51 51 SE 6 9 29.87 1012 10 16 N/A
3:15 pm 15:15 Sunny 88 31.3 66 18.8 47 47 ESE 7 11 29.86 1011 10 16 N/A
3:35 pm 15:35 Partly Cloudy 88 31 66 19.1 49 49 SSE 6 9 29.86 1011 10 16 N/A
3:55 pm 15:55 Partly Cloudy 88 30.9 66 18.8 48 48 SE 5 7 29.85 1011 10 16 N/A
4:15 pm 16:15 Sunny 89 31.7 65 18.5 45 45 ESE 7 11 29.85 1011 10 16 N/A
4:35 pm 16:35 Partly Cloudy 89 31.5 66 18.8 47 47 N N/A 29.85 1011 10 16 N/A
4:55 pm 16:55 Sunny 89 31.5 65 18.3 45 45 SSE 3 6 29.84 1010 10 16 N/A
5:15 pm 17:15 Sunny 87 30.7 65 18.1 47 47 SSE 5 7 29.84 1011 10 16 N/A
5:35 pm 17:35 Sunny 88 31.1 65 18.5 47 47 S 6 9 29.84 1010 10 16 N/A
5:55 pm 17:55 Partly Cloudy 87 30.8 66 19 49 49 ESE 6 9 29.84 1011 10 16 N/A
6:15 pm 18:15 Partly Cloudy 87 30.7 66 19.1 50 50 SE 5 7 29.84 1011 10 16 N/A
6:35 pm 18:35 Partly Cloudy 87 30.4 67 19.4 52 52 ESE 7 11 29.84 1011 10 16 N/A
6:55 pm 18:55 Sunny 87 30.3 66 19.1 51 51 ESE 5 7 29.84 1011 10 16 N/A
7:15 pm 19:15 Sunny 85 29.6 69 20.3 57 57 E 5 7 29.84 1011 10 16 N/A
7:35 pm 19:35 Sunny 84 29 70 21 62 62 E 5 7 29.84 1011 10 16 N/A
7:55 pm 19:55 Sunny 83 28.3 69 20.6 63 63 ESE 7 11 29.85 1011 10 16 N/A
8:15 pm 20:15 Sunny 80 26.8 70 21.2 71 71 SE 3 6 29.85 1011 10 16 N/A
8:35 pm 20:35 Clear 77 24.9 73 22.5 87 87 N N/A 29.86 1011 10 16 N/A
8:55 pm 20:55 Clear 74 23.6 73 22.6 94 94 N N/A 29.87 1011 10 16 N/A
9:15 pm 21:15 Clear 75 23.7 73 22.8 95 95 ENE 3 6 29.88 1012 10 16 N/A
9:35 pm 21:35 Clear 74 23.3 73 22.7 96 96 N N/A 29.89 1012 10 16 N/A
9:55 pm 21:55 Clear 74 23.1 73 22.6 97 97 NE 3 6 29.90 1012 7 11 N/A
10:15 pm 22:15 Clear 73 22.6 72 22.2 98 98 N N/A 29.90 1012 7 11 N/A
10:35 pm 22:35 Clear 72 22 72 22 100 100 N N/A 29.90 1013 7 11 N/A
10:55 pm 22:55 Hazy 72 22 N/A N/A N N/A 29.90 1013 7 11 N/A
11:15 pm 23:15 Hazy 72 22 N/A N/A N N/A 29.90 1013 7 11 N/A
11:35 pm 23:35 Clear with Mist and Fog 70 21 70 21 100 100 N 3 6 29.90 1013 5 8 N/A
11:55 pm 23:55 Clear 71 21.7 71 21.6 99 99 NNE 3 6 29.91 1013 7 11 N/A

Powered by AerisWeather